Airfield :
LOGIN :

Register | Disclaimer

   EN    FR    IT 

 










Legend :    VFR   Marginal VFR   IFR   Intensive IFR   Very Intensive IFR
Visi :
Ceiling :
>= 8 km
>= 3000ft
5 to 8 km
1000 to 3000 ft
1500m to 5 km
500 to 1000 ft
800 to 1500m
200 to 500 ft
< 800m
< 200 ft
Symbols :   Thunderstorms  Fog  Heavy snow  Heavy precipitations  Wind > 20 kt
SIGMETs :     Misc.  Thunderstorms  Icing  Turbulence  Mountain Waves  Volcanic Ashes







- Airport Elevation : 741 ft
- IATA code : PED


LKPD - Pardubice AB

CURRENT METAR :
  • 301600Z 10010KT CAVOK 14/01 Q1016 NOSIG RMK BLU BLU

EXPIRED METARs :
  • 301500Z 10012KT CAVOK 14/02 Q1017 NOSIG
  • 301400Z 10011KT CAVOK 14/02 Q1017 NOSIG RMK BLU BLU

TAF TAF LKPD
Valid from the 30 at 12:00 until the 01 at 12:00 UTC


301100Z 3012/0112 09010KT 9999 FEW040
BECMG 3013/3017 10010G20KT CAVOK
TEMPO 0110/0112 12010G22KT SCT040
No reported NOTAMs for that airfield.



MET'MAP, your aeronautical weather chart ! - Copyright ORBIFLY December 2007 - Disclaimer

ORBIFLY MET'MAP TEAM :

Programming & Development : Alexandra Zaïnal
Concept & Development : Baudouin d'Aumeries
Co-Development & Prog : Marc-Olivier Méhu
Technical & hardware support : Manuel Goepfert

Contact : metmap@orbifly.com




SOURCES & CREDITS :

   NOAA